This demonstration page uses our WeatherBlox Daily Observations layout. Learn more.

Left ArrowRight Arrow

36.17497, -115.13722

Hourly Observations for October 18, 2016

Temp ( °F °C ) Dew Point ( °F °C ) Humidity (%) Winds ( mph kmh ) Pressure ( in mb ) Visibility ( mi km ) Precip ( " mm )
12:53 am 00:53 Clear 67 19.4 39 3.9 36 36 Calm 29.85 1011 10 16.0934 0 0
1:53 am 01:53 Clear 65 18.3 39 3.9 39 39 E 3 6 29.85 1011 10 16.0934 0 0
2:53 am 02:53 Clear 65 18.3 38 3.3 37 37 WNW 6 9 29.85 1011 10 16.0934 0 0
3:53 am 03:53 Clear 63 17.2 39 3.9 41 41 Calm 29.86 1011 10 16.0934 0 0
4:53 am 04:53 Clear 62 16.7 39 3.9 43 43 Calm 29.88 1012 10 16.0934 0 0
5:53 am 05:53 Clear 63 17.2 39 3.9 41 41 NW 6 9 29.9 1012 10 16.0934 0 0
6:53 am 06:53 Sunny 62 16.7 39 3.9 43 43 WNW 6 9 29.92 1013 10 16.0934 0 0
7:53 am 07:53 Sunny 63 17.2 40 4.4 43 43 WSW 6 9 29.94 1014 10 16.0934 0 0
8:53 am 08:53 Sunny 67 19.4 40 4.4 37 37 VRB 3 6 29.94 1014 10 16.0934 0 0
9:53 am 09:53 Sunny 70 21.1 40 4.4 34 34 VRB 3 6 29.96 1015 10 16.0934 0 0
10:53 am 10:53 Sunny 73 22.8 40 4.4 30 30 VRB 5 7 29.95 1014 10 16.0934 0 0
11:53 am 11:53 Sunny 75 23.9 39 3.9 27 27 NE 7 11 29.95 1014 10 16.0934 0 0
12:53 pm 12:53 Sunny 77 25 39 3.9 26 26 VRB 3 6 29.94 1014 10 16.0934 0 0
1:53 pm 13:53 Sunny 77 25 40 4.4 26 26 WSW 6 9 29.91 1013 10 16.0934 0 0
2:53 pm 14:53 Sunny 79 26.1 40 4.4 25 25 Calm 29.89 1012 10 16.0934 0 0
3:53 pm 15:53 Sunny 81 27.2 40 4.4 23 23 VRB 7 11 29.89 1012 10 16.0934 0 0
4:53 pm 16:53 Sunny 80 26.7 40 4.4 24 24 W 3 6 29.88 1012 10 16.0934 0 0
5:53 pm 17:53 Sunny 79 26.1 40 4.4 25 25 SW 7 11 29.88 1012 10 16.0934 0 0
6:53 pm 18:53 Clear 78 25.6 40 4.4 26 26 Calm 29.91 1013 10 16.0934 0 0
7:53 pm 19:53 Clear 74 23.3 39 3.9 28 28 NNE 7 11 29.93 1014 10 16.0934 0 0
8:53 pm 20:53 Clear 75 23.9 18 -7.8 11 11 NNW 17 28 29.96 1014 10 16.0934 0 0
9:53 pm 21:53 Clear 74 23.3 9 -12.8 8 8 NNW 24 39 29.98 1015 10 16.0934 0 0
10:53 pm 22:53 Clear 73 22.8 8 -13.3 8 8 NNW 17 28 30 1016 10 16.0934 0 0
11:53 pm 23:53 Clear 70 21.1 7 -13.9 8 8 NNW 17 28 30 1016 10 16.0934 0 0

Powered by AerisWeather